When you browse on this site, cookies collect data to enhance your experience and personalize the content and advertising you see.
Visit our Privacy Policy to learn more. By continuing to use the site, you agree to this use of cookies and data.
  • în România
  • Lista ţărilor
  • Pe 7 zile
  • Temperatura apei
  • Hartă satelitară
  • Meteo pe hartă
  • Widget-uri
  • user-avatar
    Intrare

    Meteo pe oră la Khashuri

    Astăzi, 25 Mai, Sâmbătă

    Timp Temperatura Precipitaţii Vânt Presiune Umiditate
    00:00 +10°C° 0.1 mm 2 m/s 614 mmHg 76%
    01:00 +10°C° 0.1 mm 2 m/s 614 mmHg 76%
    02:00 +10°C° 0.1 mm 2 m/s 613 mmHg 76%
    03:00 +9°C° 0 mm 2 m/s 613 mmHg 78%
    04:00 +10°C° 0 mm 2 m/s 613 mmHg 78%
    05:00 +10°C° 0 mm 2 m/s 613 mmHg 78%
    06:00 +10°C° 0 mm 2 m/s 613 mmHg 77%
    07:00 +14°C° 0 mm 2 m/s 614 mmHg 71%
    08:00 +16°C° 0 mm 2 m/s 615 mmHg 64%
    09:00 +19°C° 0 mm 3 m/s 615 mmHg 55%
    10:00 +20°C° 0 mm 4 m/s 616 mmHg 50%
    11:00 +22°C° 0 mm 5 m/s 616 mmHg 45%
    12:00 +23°C° 0 mm 6 m/s 617 mmHg 39%
    13:00 +22°C° 0.5 mm 6 m/s 616 mmHg 46%
    14:00 +21°C° 0.5 mm 5 m/s 616 mmHg 53%
    15:00 +19°C° 0 mm 4 m/s 615 mmHg 62%
    16:00 +17°C° 1.8 mm 4 m/s 615 mmHg 71%
    17:00 +14°C° 1.8 mm 4 m/s 614 mmHg 79%
    18:00 +12°C° 1.8 mm 4 m/s 614 mmHg 88%
    19:00 +11°C° 0.4 mm 3 m/s 614 mmHg 91%
    20:00 +10°C° 0.4 mm 2 m/s 614 mmHg 94%
    21:00 +10°C° 0.4 mm 1 m/s 614 mmHg 97%
    22:00 +9°C° 0 mm 1 m/s 614 mmHg 97%
    23:00 +9°C° 0 mm 1 m/s 614 mmHg 96%

    Mâine, 26 Mai, Duminică

    Timp Temperatura Precipitaţii Vânt Presiune Umiditate
    00:00 +7°C° 0 mm 0 m/s 614 mmHg 95%
    01:00 +7°C° 0 mm 0 m/s 613 mmHg 94%
    02:00 +8°C° 0 mm 1 m/s 613 mmHg 93%
    03:00 +7°C° 0 mm 1 m/s 613 mmHg 92%
    04:00 +8°C° 0 mm 1 m/s 613 mmHg 90%
    05:00 +9°C° 0 mm 1 m/s 613 mmHg 88%
    06:00 +10°C° 0 mm 1 m/s 614 mmHg 86%
    07:00 +11°C° 0.1 mm 1 m/s 614 mmHg 79%
    08:00 +13°C° 0.1 mm 1 m/s 615 mmHg 72%
    09:00 +15°C° 0.1 mm 1 m/s 616 mmHg 65%
    10:00 +16°C° 0.5 mm 2 m/s 616 mmHg 64%
    11:00 +16°C° 0.5 mm 2 m/s 616 mmHg 62%
    12:00 +16°C° 0.5 mm 2 m/s 616 mmHg 61%
    13:00 +16°C° 1 mm 3 m/s 615 mmHg 66%
    14:00 +14°C° 1 mm 3 m/s 615 mmHg 71%
    15:00 +13°C° 1 mm 4 m/s 615 mmHg 75%
    16:00 +12°C° 0.2 mm 3 m/s 615 mmHg 78%
    17:00 +12°C° 0.2 mm 2 m/s 614 mmHg 80%
    18:00 +11°C° 0.2 mm 1 m/s 614 mmHg 82%
    19:00 +10°C° 0 mm 1 m/s 614 mmHg 87%
    20:00 +8°C° 0 mm 1 m/s 614 mmHg 91%
    21:00 +7°C° 0 mm 1 m/s 615 mmHg 95%
    22:00 +7°C° 0 mm 1 m/s 615 mmHg 95%
    23:00 +7°C° 0 mm 1 m/s 615 mmHg 95%

    Poimâine, 27 Mai, Luni

    Timp Temperatura Precipitaţii Vânt Presiune Umiditate
    00:00 +7°C° 0 mm 1 m/s 615 mmHg 95%
    01:00 +6°C° 0 mm 1 m/s 615 mmHg 95%
    02:00 +6°C° 0 mm 1 m/s 615 mmHg 95%
    03:00 +5°C° 0 mm 1 m/s 614 mmHg 95%
    04:00 +6°C° 0 mm 1 m/s 615 mmHg 93%
    05:00 +6°C° 0 mm 1 m/s 615 mmHg 90%
    06:00 +7°C° 0 mm 1 m/s 615 mmHg 88%
    07:00 +9°C° 0 mm 1 m/s 616 mmHg 79%
    08:00 +11°C° 0 mm 1 m/s 617 mmHg 69%
    09:00 +13°C° 0 mm 2 m/s 617 mmHg 60%
    10:00 +14°C° 0 mm 2 m/s 618 mmHg 58%
    11:00 +15°C° 0 mm 2 m/s 618 mmHg 55%
    12:00 +16°C° 0 mm 3 m/s 618 mmHg 53%
    13:00 +16°C° 0 mm 2 m/s 618 mmHg 54%
    14:00 +16°C° 0 mm 2 m/s 618 mmHg 54%
    15:00 +16°C° 0 mm 2 m/s 618 mmHg 55%
    16:00 +16°C° 0 mm 2 m/s 618 mmHg 61%
    17:00 +15°C° 0 mm 2 m/s 617 mmHg 67%
    18:00 +14°C° 0 mm 2 m/s 617 mmHg 73%
    19:00 +12°C° 0.1 mm 2 m/s 617 mmHg 81%
    20:00 +10°C° 0.1 mm 1 m/s 617 mmHg 89%
    21:00 +7°C° 0.1 mm 0 m/s 617 mmHg 96%
    22:00 +7°C° 0 mm 0 m/s 617 mmHg 96%
    23:00 +7°C° 0 mm 1 m/s 617 mmHg 95%

    28 Mai, Marţi

    Timp Temperatura Precipitaţii Vânt Presiune Umiditate
    00:00 +7°C° 0 mm 1 m/s 617 mmHg 95%
    01:00 +7°C° 0 mm 1 m/s 616 mmHg 93%
    02:00 +6°C° 0 mm 1 m/s 616 mmHg 92%
    03:00 +6°C° 0 mm 1 m/s 616 mmHg 91%
    04:00 +7°C° 0 mm 1 m/s 616 mmHg 88%
    05:00 +7°C° 0 mm 1 m/s 616 mmHg 85%
    06:00 +8°C° 0 mm 1 m/s 617 mmHg 82%
    07:00 +11°C° 0 mm 1 m/s 618 mmHg 71%
    08:00 +14°C° 0 mm 1 m/s 619 mmHg 60%
    09:00 +16°C° 0 mm 0 m/s 620 mmHg 49%
    10:00 +17°C° 0 mm 0 m/s 620 mmHg 47%
    11:00 +20°C° 0 mm 1 m/s 620 mmHg 45%
    12:00 +21°C° 0 mm 1 m/s 620 mmHg 44%
    13:00 +20°C° 0.2 mm 1 m/s 620 mmHg 45%
    14:00 +19°C° 0.2 mm 2 m/s 619 mmHg 46%
    15:00 +19°C° 0.2 mm 2 m/s 619 mmHg 47%
    16:00 +18°C° 0.7 mm 2 m/s 618 mmHg 57%
    17:00 +17°C° 0.7 mm 2 m/s 618 mmHg 66%
    18:00 +15°C° 0.7 mm 2 m/s 617 mmHg 75%
    19:00 +13°C° 0.3 mm 2 m/s 617 mmHg 79%
    20:00 +10°C° 0.3 mm 2 m/s 617 mmHg 83%
    21:00 +9°C° 0.3 mm 1 m/s 616 mmHg 87%
    22:00 +9°C° 0.1 mm 1 m/s 616 mmHg 87%
    23:00 +7°C° 0.1 mm 2 m/s 616 mmHg 87%

    29 Mai, Miercuri

    Timp Temperatura Precipitaţii Vânt Presiune Umiditate
    00:00 +7°C° 0.1 mm 2 m/s 616 mmHg 87%
    01:00 +7°C° 0 mm 2 m/s 616 mmHg 88%
    02:00 +6°C° 0 mm 2 m/s 615 mmHg 88%
    03:00 +6°C° 0 mm 2 m/s 615 mmHg 88%
    04:00 +7°C° 0 mm 2 m/s 615 mmHg 88%
    05:00 +7°C° 0 mm 2 m/s 615 mmHg 87%
    06:00 +8°C° 0 mm 2 m/s 616 mmHg 86%
    07:00 +10°C° 0 mm 2 m/s 617 mmHg 75%
    08:00 +14°C° 0 mm 2 m/s 617 mmHg 63%
    09:00 +18°C° 0 mm 1 m/s 618 mmHg 52%
    10:00 +20°C° 0 mm 1 m/s 619 mmHg 48%
    11:00 +21°C° 0 mm 1 m/s 619 mmHg 44%
    12:00 +22°C° 0 mm 1 m/s 619 mmHg 40%
    13:00 +23°C° 0 mm 1 m/s 619 mmHg 41%
    14:00 +23°C° 0 mm 1 m/s 619 mmHg 42%
    15:00 +23°C° 0 mm 1 m/s 618 mmHg 42%
    16:00 +22°C° 0.1 mm 1 m/s 618 mmHg 49%
    17:00 +20°C° 0.1 mm 2 m/s 618 mmHg 56%
    18:00 +19°C° 0.1 mm 2 m/s 617 mmHg 64%
    19:00 +16°C° 0.2 mm 2 m/s 617 mmHg 71%
    20:00 +14°C° 0.2 mm 2 m/s 616 mmHg 78%
    21:00 +11°C° 0.2 mm 1 m/s 616 mmHg 85%
    22:00 +10°C° 0 mm 2 m/s 616 mmHg 85%
    23:00 +9°C° 0 mm 2 m/s 615 mmHg 84%

    30 Mai, Joi

    Timp Temperatura Precipitaţii Vânt Presiune Umiditate
    00:00 +9°C° 0 mm 2 m/s 615 mmHg 83%
    01:00 +8°C° 0 mm 2 m/s 615 mmHg 82%
    02:00 +8°C° 0 mm 2 m/s 615 mmHg 80%
    03:00 +8°C° 0 mm 2 m/s 615 mmHg 79%
    04:00 +8°C° 0 mm 2 m/s 615 mmHg 78%
    05:00 +9°C° 0 mm 2 m/s 615 mmHg 76%
    06:00 +10°C° 0 mm 2 m/s 616 mmHg 75%
    07:00 +14°C° 0 mm 1 m/s 617 mmHg 67%
    08:00 +18°C° 0 mm 1 m/s 617 mmHg 59%
    09:00 +19°C° 0 mm 0 m/s 618 mmHg 51%
    10:00 +22°C° 0 mm 1 m/s 618 mmHg 48%
    11:00 +22°C° 0 mm 1 m/s 618 mmHg 44%
    12:00 +23°C° 0 mm 1 m/s 618 mmHg 41%
    13:00 +23°C° 0.1 mm 2 m/s 618 mmHg 42%
    14:00 +23°C° 0.1 mm 2 m/s 618 mmHg 43%
    15:00 +23°C° 0.1 mm 2 m/s 618 mmHg 43%
    16:00 +21°C° 0.1 mm 2 m/s 618 mmHg 50%
    17:00 +20°C° 0.1 mm 2 m/s 617 mmHg 56%
    18:00 +19°C° 0.1 mm 2 m/s 617 mmHg 62%
    19:00 +17°C° 0 mm 2 m/s 616 mmHg 70%
    20:00 +14°C° 0 mm 1 m/s 616 mmHg 78%
    21:00 +11°C° 0 mm 1 m/s 615 mmHg 86%
    22:00 +11°C° 0 mm 1 m/s 615 mmHg 86%
    23:00 +11°C° 0 mm 1 m/s 615 mmHg 85%
    Arată mai mult